WB9FIU Weather Reports


Display with metric or nautical units.
time (UTC)temp
F
wind
direction
speed
MPH
gust
MPH
rain 1hr
in
rain 24hr
in
rain mn
in
humidity
%
barometer
mb
20260902181432 93 228 5.0 8.0 0.00 0.00 0.00 48 1014.8
20260902181334 93 211 2.0 7.0 0.00 0.00 0.00 49 1014.8
20260902181232 93 190 6.0 9.0 0.00 0.00 0.00 48 1014.7
20260902173231 92 213 3.0 9.0 0.00 0.00 0.00 52 1015.2
20260902173130 92 244 6.0 7.0 0.00 0.00 0.00 51 1015.3
20260902172930 92 203 5.0 7.0 0.00 0.00 0.00 51 1015.3
20260902172831 92 203 5.0 9.0 0.00 0.00 0.00 50 1015.3
20260902155430 89 215 2.0 7.0 0.00 0.00 0.00 58 1015.9
20260902155332 89 207 2.0 5.0 0.00 0.00 0.00 58 1015.9
20260902155232 89 206 1.0 7.0 0.00 0.00 0.00 59 1015.9
20260902155131 89 182 3.0 6.0 0.00 0.00 0.00 58 1015.9
20260902155032 89 206 5.0 8.0 0.00 0.00 0.00 58 1015.9
20260902154932 89 208 7.0 9.0 0.00 0.00 0.00 58 1015.9
20260902154831 89 213 5.0 9.0 0.00 0.00 0.00 58 1015.9
20260902154732 89 229 3.0 8.0 0.00 0.00 0.00 60 1015.9
20260902154630 89 227 1.0 7.0 0.00 0.00 0.00 60 1015.9
20260902154431 89 176 0.0 2.0 0.00 0.00 0.00 60 1015.9
20260902154332 89 176 0.0 0.0 0.00 0.00 0.00 60 1015.9
20260902151231 88 238 2.0 5.0 0.00 0.00 0.00 61 1016.1
20260902151132 88 178 2.0 7.0 0.00 0.00 0.00 62 1016.2
20260902150930 88 189 0.0 0.0 0.00 0.00 0.00 64 1016.2
20260902150831 88 193 0.0 1.0 0.00 0.00 0.00 64 1016.2
20260902150731 87 201 2.0 3.0 0.00 0.00 0.00 64 1016.2
20260902150631 87 210 0.0 6.0 0.00 0.00 0.00 64 1016.3
20260902150531 87 215 0.0 0.0 0.00 0.00 0.00 65 1016.2
20260902150433 87 206 0.0 1.0 0.00 0.00 0.00 64 1016.2
20260902150232 87 195 1.0 6.0 0.00 0.00 0.00 63 1016.3
20260902150131 87 181 2.0 5.0 0.00 0.00 0.00 63 1016.3
20260902150030 87 199 3.0 5.0 0.00 0.00 0.00 63 1016.3
20260902145832 87 225 3.0 8.0 0.00 0.00 0.00 64 1016.4
20260902145632 86 204 3.0 6.0 0.00 0.00 0.00 63 1016.4
20260902145531 87 229 3.0 6.0 0.00 0.00 0.00 63 1016.4
20260902145458 86 201 2.0 5.0 0.00 0.00 0.00 66 1016.4
20260902145433 87 197 3.0 8.0 0.00 0.00 0.00 64 1016.4
20260902145331 87 198 2.0 8.0 0.00 0.00 0.00 64 1016.4
20260902145231 87 225 1.0 7.0 0.00 0.00 0.00 65 1016.4
20260902145131 87 205 1.0 2.0 0.00 0.00 0.00 66 1016.4
20260902145030 86 248 0.0 1.0 0.00 0.00 0.00 66 1016.4
20260902144930 86 248 0.0 0.0 0.00 0.00 0.00 66 1016.4
20260902144831 86 251 3.0 3.0 0.00 0.00 0.00 66 1016.4
20260902144732 86 237 3.0 8.0 0.00 0.00 0.00 65 1016.4
20260902144631 86 201 2.0 5.0 0.00 0.00 0.00 66 1016.4
20260902144532 86 189 2.0 5.0 0.00 0.00 0.00 66 1016.3
20260902144432 86 189 0.0 5.0 0.00 0.00 0.00 67 1016.4
20260902144332 86 189 0.0 0.0 0.00 0.00 0.00 67 1016.4
20260902144231 86 195 0.0 2.0 0.00 0.00 0.00 67 1016.4
20260902144131 86 216 1.0 3.0 0.00 0.00 0.00 67 1016.4
20260902144031 86 237 0.0 3.0 0.00 0.00 0.00 67 1016.4
20260902143932 86 219 1.0 3.0 0.00 0.00 0.00 67 1016.4
20260902143833 86 199 0.0 3.0 0.00 0.00 0.00 67 1016.5
20260902143731 86 154 0.0 0.0 0.00 0.00 0.00 68 1016.5
20260902143631 85 154 0.0 0.0 0.00 0.00 0.00 68 1016.5
20260902143531 85 154 0.0 1.0 0.00 0.00 0.00 68 1016.5
20260902143431 85 287 0.0 2.0 0.00 0.00 0.00 68 1016.5
20260902143345 85 289 0.0 0.0 0.00 0.00 0.00 68 1016.5
20260902143331 85 289 0.0 0.0 0.00 0.00 0.00 68 1016.5
20260902143230 85 289 0.0 0.0 0.00 0.00 0.00 68 1016.5
20260902143130 85 289 1.0 1.0 0.00 0.00 0.00 68 1016.6
20260902142931 85 245 1.0 5.0 0.00 0.00 0.00 68 1016.6
20260902142833 85 190 2.0 6.0 0.00 0.00 0.00 68 1016.6
20260902142731 85 237 3.0 7.0 0.00 0.00 0.00 67 1016.6
20260902142532 85 199 1.0 6.0 0.00 0.00 0.00 69 1016.6
20260902142431 85 171 0.0 0.0 0.00 0.00 0.00 70 1016.6
20260902142334 85 171 0.0 0.0 0.00 0.00 0.00 70 1016.6
20260902142231 84 171 0.0 0.0 0.00 0.00 0.00 70 1016.7
20260902142131 84 171 0.0 0.0 0.00 0.00 0.00 70 1016.7
20260902142026 84 175 1.0 2.0 0.00 0.00 0.00 70 1016.7
20260902141932 84 205 1.0 2.0 0.00 0.00 0.00 69 1016.7
20260902141840 84 172 1.0 2.0 0.00 0.00 0.00 69 1016.7
20260902141830 84 175 1.0 2.0 0.00 0.00 0.00 70 1016.7
20260902141731 84 175 1.0 2.0 0.00 0.00 0.00 70 1016.7
20260902141632 84 203 1.0 5.0 0.00 0.00 0.00 70 1016.7
20260902141530 84 219 1.0 3.0 0.00 0.00 0.00 70 1016.7
20260902141433 84 263 1.0 3.0 0.00 0.00 0.00 72 1016.7
20260902141332 84 181 0.0 1.0 0.00 0.00 0.00 73 1016.7
20260902141132 83 181 0.0 0.0 0.00 0.00 0.00 74 1016.6
20260902141032 83 181 0.0 0.0 0.00 0.00 0.00 74 1016.6
20260902140931 83 181 0.0 0.0 0.00 0.00 0.00 74 1016.6
20260902140834 83 181 0.0 0.0 0.00 0.00 0.00 74 1016.6
20260902140533 83 181 0.0 0.0 0.00 0.00 0.00 74 1016.6
20260902140330 82 181 0.0 0.0 0.00 0.00 0.00 74 1016.7
20260902140031 82 199 0.0 0.0 0.00 0.00 0.00 74 1016.7
20260902135930 82 199 0.0 0.0 0.00 0.00 0.00 75 1016.7
20260902135634 82 199 0.0 0.0 0.00 0.00 0.00 75 1016.6
20260902135533 82 199 0.0 0.0 0.00 0.00 0.00 75 1016.6
20260902135431 82 199 0.0 0.0 0.00 0.00 0.00 75 1016.6
20260902135330 82 199 0.0 0.0 0.00 0.00 0.00 75 1016.6
20260902135131 82 199 0.0 0.0 0.00 0.00 0.00 76 1016.5
20260902135032 82 199 0.0 0.0 0.00 0.00 0.00 76 1016.5
20260902134930 82 199 0.0 0.0 0.00 0.00 0.00 76 1016.5
20260902134833 81 199 0.0 0.0 0.00 0.00 0.00 75 1016.5
20260902134739 81 199 0.0 2.0 0.00 0.00 0.00 76 1016.5
20260902134702 81 199 0.0 2.0 0.00 0.00 0.00 76 1016.5
20260902134629 81 199 0.0 2.0 0.00 0.00 0.00 76 1016.5
20260902134610 81 192 0.0 2.0 0.00 0.00 0.00 75 1016.6
20260902134530 81 192 0.0 2.0 0.00 0.00 0.00 75 1016.6
20260902134431 81 191 0.0 1.0 0.00 0.00 0.00 76 1016.6
20260902134333 81 191 0.0 0.0 0.00 0.00 0.00 76 1016.7
20260902134134 81 191 0.0 0.0 0.00 0.00 0.00 76 1016.7
20260902134033 81 191 0.0 0.0 0.00 0.00 0.00 76 1016.7
20260902133831 81 191 0.0 0.0 0.00 0.00 0.00 76 1016.7
20260902133731 81 191 0.0 0.0 0.00 0.00 0.00 77 1016.7
20260902133631 81 191 0.0 0.0 0.00 0.00 0.00 77 1016.7
20260902133531 81 191 0.0 0.0 0.00 0.00 0.00 77 1016.7
20260902133331 81 191 0.0 0.0 0.00 0.00 0.00 77 1016.7
20260902133212 80 191 0.0 0.0 0.00 0.00 0.00 78 1016.7
20260902133130 80 191 0.0 0.0 0.00 0.00 0.00 78 1016.7
20260902132930 80 191 0.0 0.0 0.00 0.00 0.00 78 1016.8
20260902132830 80 191 0.0 0.0 0.00 0.00 0.00 79 1016.8
20260902132731 80 191 0.0 0.0 0.00 0.00 0.00 79 1016.8
20260902132631 80 191 0.0 0.0 0.00 0.00 0.00 79 1016.8
20260902132534 80 191 0.0 0.0 0.00 0.00 0.00 79 1016.8
20260902132528 80 191 0.0 0.0 0.00 0.00 0.00 79 1016.9
20260902132431 80 191 0.0 0.0 0.00 0.00 0.00 79 1016.9
20260902132331 80 191 0.0 0.0 0.00 0.00 0.00 79 1016.8
20260902132231 80 191 0.0 0.0 0.00 0.00 0.00 80 1016.8
20260902132132 80 191 0.0 0.0 0.00 0.00 0.00 80 1016.7
20260902131931 80 191 0.0 0.0 0.00 0.00 0.00 80 1016.8
20260902131832 79 199 0.0 1.0 0.00 0.00 0.00 80 1016.8
20260902131731 79 203 0.0 0.0 0.00 0.00 0.00 80 1016.7
20260902131630 79 203 0.0 0.0 0.00 0.00 0.00 80 1016.8
20260902131530 79 203 0.0 0.0 0.00 0.00 0.00 80 1016.8
20260902131505 79 203 0.0 0.0 0.00 0.00 0.00 80 1016.8
20260902131432 79 203 0.0 0.0 0.00 0.00 0.00 80 1016.8
20260902131330 79 203 0.0 0.0 0.00 0.00 0.00 80 1016.9
20260902131230 79 203 0.0 0.0 0.00 0.00 0.00 80 1016.9
20260902131131 79 203 0.0 0.0 0.00 0.00 0.00 80 1016.8
20260902131032 79 203 0.0 0.0 0.00 0.00 0.00 81 1016.8
20260902130931 79 203 0.0 0.0 0.00 0.00 0.00 81 1016.8
20260902130731 79 203 0.0 0.0 0.00 0.00 0.00 81 1016.8
20260902130631 79 203 0.0 0.0 0.00 0.00 0.00 81 1016.8
20260902130530 78 203 0.0 0.0 0.00 0.00 0.00 81 1016.8
20260902130429 78 203 0.0 0.0 0.00 0.00 0.00 81 1016.7
20260902130330 78 203 0.0 0.0 0.00 0.00 0.00 82 1016.7
20260902130231 78 203 0.0 0.0 0.00 0.00 0.00 82 1016.7
20260902130031 78 203 0.0 0.0 0.00 0.00 0.00 82 1016.7
20260902125933 78 203 0.0 0.0 0.00 0.00 0.00 82 1016.7
20260902125830 78 203 0.0 0.0 0.00 0.00 0.00 82 1016.7
20260902125732 78 203 0.0 0.0 0.00 0.00 0.00 82 1016.7
20260902125631 78 203 0.0 0.0 0.00 0.00 0.00 82 1016.8
20260902125531 78 203 0.0 0.0 0.00 0.00 0.00 82 1016.8
20260902125332 78 203 0.0 0.0 0.00 0.00 0.00 83 1016.8
20260902125131 78 203 0.0 0.0 0.00 0.00 0.00 83 1016.8
20260902125031 77 203 0.0 0.0 0.00 0.00 0.00 83 1016.8
20260902124932 77 203 0.0 0.0 0.00 0.00 0.00 83 1016.7
20260902124529 77 203 0.0 0.0 0.00 0.00 0.00 84 1016.7
20260902124431 77 203 0.0 0.0 0.00 0.00 0.00 84 1016.7
20260902124332 77 203 0.0 0.0 0.00 0.00 0.00 85 1016.7
20260902124232 77 203 0.0 0.0 0.00 0.00 0.00 85 1016.7
20260902124131 77 203 0.0 0.0 0.00 0.00 0.00 85 1016.7
20260902123932 76 203 0.0 0.0 0.00 0.00 0.00 85 1016.8
20260902123834 76 203 0.0 0.0 0.00 0.00 0.00 85 1016.8
20260902123731 76 203 0.0 0.0 0.00 0.00 0.00 85 1016.8
20260902123530 76 203 0.0 0.0 0.00 0.00 0.00 86 1016.9
20260902123432 76 203 0.0 0.0 0.00 0.00 0.00 86 1016.9
20260902123334 76 203 0.0 0.0 0.00 0.00 0.00 86 1016.9
20260902123232 76 203 0.0 0.0 0.00 0.00 0.00 86 1016.9
20260902123132 76 203 0.0 0.0 0.00 0.00 0.00 86 1016.9
20260902122932 76 203 0.0 0.0 0.00 0.00 0.00 87 1016.8
20260902122831 76 203 0.0 0.0 0.00 0.00 0.00 87 1016.7
20260902122736 75 203 0.0 0.0 0.00 0.00 0.00 87 1016.7
20260902122631 75 203 0.0 0.0 0.00 0.00 0.00 87 1016.7
20260902122031 75 203 0.0 0.0 0.00 0.00 0.00 87 1016.8
20260902121830 75 203 0.0 0.0 0.00 0.00 0.00 88 1016.8
20260902121731 75 203 0.0 0.0 0.00 0.00 0.00 88 1016.8
20260902121531 75 203 0.0 0.0 0.00 0.00 0.00 88 1016.8
20260902121431 75 203 0.0 0.0 0.00 0.00 0.00 88 1016.7
20260902121132 74 203 0.0 0.0 0.00 0.00 0.00 89 1016.7
20260902120931 74 203 0.0 0.0 0.00 0.00 0.00 89 1016.7
20260902120830 74 203 0.0 0.0 0.00 0.00 0.00 89 1016.7
20260902120730 74 203 0.0 0.0 0.00 0.00 0.00 89 1016.6
20260902120430 74 203 0.0 0.0 0.00 0.00 0.00 89 1016.6
20260902120330 74 203 0.0 0.0 0.00 0.00 0.00 89 1016.6
20260902120131 74 203 0.0 0.0 0.00 0.00 0.00 89 1016.7
20260902120030 74 203 0.0 0.0 0.00 0.00 0.00 90 1016.6
20260902115931 74 203 0.0 0.0 0.00 0.00 0.00 90 1016.6
20260902115831 74 203 0.0 0.0 0.00 0.00 0.00 90 1016.6
20260902115730 74 203 0.0 0.0 0.00 0.00 0.00 90 1016.6
20260902115431 74 203 0.0 0.0 0.00 0.00 0.00 90 1016.6
20260902115331 74 203 0.0 0.0 0.00 0.00 0.00 90 1016.5
20260902115232 74 203 0.0 0.0 0.00 0.00 0.00 90 1016.5
20260902115131 74 203 0.0 0.0 0.00 0.00 0.00 90 1016.6
20260902114931 74 203 0.0 0.0 0.00 0.00 0.00 90 1016.5
20260902114630 74 203 0.0 0.0 0.00 0.00 0.00 90 1016.5
20260902114531 74 203 0.0 0.0 0.00 0.00 0.00 90 1016.5
20260902114431 74 203 0.0 0.0 0.00 0.00 0.00 90 1016.4
20260902114330 74 203 0.0 0.0 0.00 0.00 0.00 90 1016.5
20260902114131 74 203 0.0 0.0 0.00 0.00 0.00 90 1016.5
20260902113908 74 203 0.0 0.0 0.00 0.00 0.00 90 1016.5
20260902113830 74 203 0.0 0.0 0.00 0.00 0.00 90 1016.5
20260902113631 74 203 0.0 0.0 0.00 0.00 0.00 90 1016.5
20260902113431 74 203 0.0 0.0 0.00 0.00 0.00 90 1016.4
20260902113232 74 203 0.0 0.0 0.00 0.00 0.00 90 1016.3
20260902105231 74 203 0.0 0.0 0.00 0.00 0.00 90 1016.0
20260902105133 74 203 0.0 0.0 0.00 0.00 0.00 90 1016.0
20260902105030 74 203 0.0 0.0 0.00 0.00 0.00 90 1016.0
20260902104855 74 203 0.0 0.0 0.00 0.00 0.00 90 1016.1
20260902104831 74 203 0.0 0.0 0.00 0.00 0.00 90 1016.0
20260902104731 74 203 0.0 0.0 0.00 0.00 0.00 90 1016.0
20260902104631 74 203 0.0 0.0 0.00 0.00 0.00 90 1016.0
20260902104531 74 203 0.0 0.0 0.00 0.00 0.00 90 1016.1
20260902104431 74 203 0.0 0.0 0.00 0.00 0.00 90 1016.1
20260902103531 74 203 0.0 0.0 0.00 0.00 0.00 89 1016.0
20260902103430 74 203 0.0 0.0 0.00 0.00 0.00 89 1015.9
20260902103330 74 203 0.0 0.0 0.00 0.00 0.00 89 1015.9
20260902103134 74 203 0.0 0.0 0.00 0.00 0.00 89 1015.9
20260902103030 74 203 0.0 0.0 0.00 0.00 0.00 89 1015.9
20260902102930 74 203 0.0 0.0 0.00 0.00 0.00 89 1015.9
20260902102906 74 203 0.0 0.0 0.00 0.00 0.00 89 1015.9
20260902102830 74 203 0.0 0.0 0.00 0.00 0.00 89 1015.9
20260902102631 74 203 0.0 0.0 0.00 0.00 0.00 89 1015.9
20260902102531 74 203 0.0 0.0 0.00 0.00 0.00 89 1015.9
20260902102431 74 203 0.0 0.0 0.00 0.00 0.00 89 1015.9
20260902102030 74 203 0.0 0.0 0.00 0.00 0.00 89 1015.9
20260902101930 74 203 0.0 0.0 0.00 0.00 0.00 89 1015.9
20260902101830 74 203 0.0 0.0 0.00 0.00 0.00 89 1015.9
20260902101730 74 203 0.0 0.0 0.00 0.00 0.00 89 1015.8
20260902101631 74 203 0.0 0.0 0.00 0.00 0.00 89 1015.8
20260902101531 74 203 0.0 0.0 0.00 0.00 0.00 89 1015.9
20260902101431 74 203 0.0 0.0 0.00 0.00 0.00 89 1015.8
20260902101331 74 203 0.0 0.0 0.00 0.00 0.00 89 1015.8
20260902101232 74 203 0.0 0.0 0.00 0.00 0.00 89 1015.8
20260902101131 74 203 0.0 0.0 0.00 0.00 0.00 89 1015.8
20260902100930 74 203 0.0 0.0 0.00 0.00 0.00 89 1015.9
20260902090711 76 203 0.0 0.0 0.00 0.00 0.00 85 1015.4
20260902090630 76 203 0.0 0.0 0.00 0.00 0.00 86 1015.4
20260902090529 76 203 0.0 0.0 0.00 0.00 0.00 85 1015.4
20260902090432 76 203 0.0 0.0 0.00 0.00 0.00 85 1015.4
20260902090334 76 203 0.0 0.0 0.00 0.00 0.00 85 1015.4
20260902090131 76 203 0.0 0.0 0.00 0.00 0.00 85 1015.4
20260902090032 76 203 0.0 0.0 0.00 0.00 0.00 85 1015.4
20260902085931 76 203 0.0 0.0 0.00 0.00 0.00 85 1015.4
20260902085816 76 203 0.0 0.0 0.00 0.00 0.00 85 1015.5
20260902085732 76 203 0.0 0.0 0.00 0.00 0.00 85 1015.5
20260902085633 76 203 0.0 0.0 0.00 0.00 0.00 85 1015.5
20260902085531 76 203 0.0 0.0 0.00 0.00 0.00 85 1015.5
20260902085431 76 203 0.0 0.0 0.00 0.00 0.00 85 1015.5
20260902085331 76 203 0.0 0.0 0.00 0.00 0.00 85 1015.5
20260902085233 76 203 0.0 0.0 0.00 0.00 0.00 85 1015.4
20260902085131 76 203 0.0 0.0 0.00 0.00 0.00 85 1015.4
20260902085109 76 203 0.0 0.0 0.00 0.00 0.00 85 1015.4
20260902085033 76 203 0.0 0.0 0.00 0.00 0.00 85 1015.4
20260902084932 76 203 0.0 0.0 0.00 0.00 0.00 85 1015.4
20260902084831 76 203 0.0 0.0 0.00 0.00 0.00 85 1015.4
20260902084731 76 203 0.0 0.0 0.00 0.00 0.00 85 1015.4
20260902084629 76 203 0.0 0.0 0.00 0.00 0.00 85 1015.4
20260902084432 76 203 0.0 0.0 0.00 0.00 0.00 85 1015.3
20260902084330 76 203 0.0 0.0 0.00 0.00 0.00 84 1015.3
20260902084234 76 203 0.0 0.0 0.00 0.00 0.00 85 1015.3
20260902084131 76 203 0.0 0.0 0.00 0.00 0.00 85 1015.3
20260902084030 76 203 0.0 0.0 0.00 0.00 0.00 85 1015.3
20260902083930 76 203 0.0 0.0 0.00 0.00 0.00 85 1015.3
20260902083830 76 203 0.0 0.0 0.00 0.00 0.00 85 1015.3
20260902083730 76 203 0.0 0.0 0.00 0.00 0.00 85 1015.3
20260902083534 76 203 0.0 0.0 0.00 0.00 0.00 85 1015.4
20260902083431 76 203 0.0 0.0 0.00 0.00 0.00 85 1015.3
20260902083231 76 203 0.0 0.0 0.00 0.00 0.00 85 1015.2
20260902083133 76 203 0.0 0.0 0.00 0.00 0.00 84 1015.2
20260902083031 76 203 0.0 0.0 0.00 0.00 0.00 85 1015.2
20260902082930 76 203 0.0 0.0 0.00 0.00 0.00 84 1015.2
20260902082829 76 203 0.0 0.0 0.00 0.00 0.00 84 1015.2
20260902082730 76 203 0.0 0.0 0.00 0.00 0.00 84 1015.1
20260902082632 76 203 0.0 0.0 0.00 0.00 0.00 84 1015.1
20260902082432 76 203 0.0 0.0 0.00 0.00 0.00 85 1015.1
20260902082131 76 203 0.0 0.0 0.00 0.00 0.00 84 1015.1
20260902081930 76 203 0.0 0.0 0.00 0.00 0.00 84 1015.1
20260902080431 77 203 0.0 0.0 0.00 0.00 0.00 84 1015.0
20260902080410 77 203 0.0 0.0 0.00 0.00 0.00 84 1015.0
20260902080359 77 203 0.0 0.0 0.00 0.00 0.00 84 1015.1
20260902080331 77 203 0.0 0.0 0.00 0.00 0.00 84 1015.0
20260902080231 77 203 0.0 0.0 0.00 0.00 0.00 84 1015.1
20260902080131 77 203 0.0 0.0 0.00 0.00 0.00 84 1015.1
20260902080031 77 203 0.0 0.0 0.00 0.00 0.00 84 1015.1
20260902075930 77 203 0.0 0.0 0.00 0.00 0.00 84 1015.0
20260902075905 77 203 0.0 0.0 0.00 0.00 0.00 84 1015.1
20260902075832 77 203 0.0 0.0 0.00 0.00 0.00 84 1015.1
20260902075814 77 203 0.0 0.0 0.00 0.00 0.00 84 1015.1
20260902075631 77 203 0.0 0.0 0.00 0.00 0.00 84 1015.1
20260902075531 77 203 0.0 0.0 0.00 0.00 0.00 84 1015.1
20260902075431 77 203 0.0 0.0 0.00 0.00 0.00 84 1015.1
20260902075331 77 203 0.0 0.0 0.00 0.00 0.00 84 1015.1
20260902075231 77 203 0.0 0.0 0.00 0.00 0.00 84 1015.1
20260902075215 77 203 0.0 0.0 0.00 0.00 0.00 84 1015.1
20260902075131 77 203 0.0 0.0 0.00 0.00 0.00 84 1015.1
20260902074931 77 203 0.0 0.0 0.00 0.00 0.00 84 1015.0
20260902074832 77 203 0.0 0.0 0.00 0.00 0.00 84 1015.0
20260902074531 77 203 0.0 0.0 0.00 0.00 0.00 83 1015.0
20260902074332 77 203 0.0 0.0 0.00 0.00 0.00 83 1015.0
20260902074131 77 203 0.0 0.0 0.00 0.00 0.00 83 1015.1
20260902074031 77 203 0.0 0.0 0.00 0.00 0.00 83 1015.1
20260902073930 77 203 0.0 0.0 0.00 0.00 0.00 83 1015.1
20260902073830 77 203 0.0 0.0 0.00 0.00 0.00 83 1015.1
20260902073635 77 203 0.0 0.0 0.00 0.00 0.00 83 1015.1
20260902073532 77 203 0.0 0.0 0.00 0.00 0.00 83 1015.0
20260902073431 77 203 0.0 0.0 0.00 0.00 0.00 83 1015.0
20260902073131 77 203 0.0 0.0 0.00 0.00 0.00 83 1015.0
20260902072931 77 203 0.0 0.0 0.00 0.00 0.00 83 1014.9
20260902072839 77 203 0.0 0.0 0.00 0.00 0.00 83 1014.9
20260902072831 77 203 0.0 0.0 0.00 0.00 0.00 83 1014.9
20260902072801 77 203 0.0 0.0 0.00 0.00 0.00 83 1014.9
20260902072730 77 203 0.0 0.0 0.00 0.00 0.00 83 1014.9
20260902072631 77 203 0.0 0.0 0.00 0.00 0.00 83 1014.9
20260902072605 77 203 0.0 0.0 0.00 0.00 0.00 83 1014.9
20260902072530 77 203 0.0 0.0 0.00 0.00 0.00 83 1014.9
20260902072430 77 203 0.0 0.0 0.00 0.00 0.00 83 1015.0
20260902072332 77 203 0.0 0.0 0.00 0.00 0.00 83 1015.0
20260902072231 77 203 0.0 0.0 0.00 0.00 0.00 83 1015.0
20260902072030 77 203 0.0 0.0 0.00 0.00 0.00 83 1015.0
20260902071929 77 203 0.0 0.0 0.00 0.00 0.00 83 1015.1
20260902071829 77 203 0.0 0.0 0.00 0.00 0.00 83 1015.0
20260902071730 77 203 0.0 0.0 0.00 0.00 0.00 83 1015.1
20260902071629 77 203 0.0 0.0 0.00 0.00 0.00 83 1015.0
20260902071530 77 203 0.0 0.0 0.00 0.00 0.00 83 1015.0
20260902071431 77 203 0.0 0.0 0.00 0.00 0.00 83 1015.0
20260902071405 77 203 0.0 0.0 0.00 0.00 0.00 83 1015.0
20260902071330 77 203 0.0 0.0 0.00 0.00 0.00 83 1015.0
20260902071131 77 203 0.0 0.0 0.00 0.00 0.00 83 1015.0
20260902070928 77 203 0.0 0.0 0.00 0.00 0.00 83 1015.0
20260902070829 77 203 0.0 0.0 0.00 0.00 0.00 83 1014.9
20260902070630 77 203 0.0 0.0 0.00 0.00 0.00 83 1014.9
20260902070600 78 203 0.0 0.0 0.00 0.00 0.00 83 1015.0
20260902070529 78 203 0.0 0.0 0.00 0.00 0.00 83 1015.0
20260902070430 78 203 0.0 0.0 0.00 0.00 0.00 82 1015.0
20260902070421 78 203 0.0 0.0 0.00 0.00 0.00 82 1015.0
20260902070329 78 203 0.0 0.0 0.00 0.00 0.00 82 1015.0
20260902070232 78 203 0.0 0.0 0.00 0.00 0.00 82 1015.1
20260902070131 78 203 0.0 0.0 0.00 0.00 0.00 82 1015.1
20260902065929 78 203 0.0 0.0 0.00 0.00 0.00 82 1015.0
20260902065830 78 203 0.0 0.0 0.00 0.00 0.00 82 1015.1
20260902065804 78 203 0.0 0.0 0.00 0.00 0.00 82 1015.1
20260902065729 78 203 0.0 0.0 0.00 0.00 0.00 82 1015.1
20260902065629 78 203 0.0 0.0 0.00 0.00 0.00 82 1015.1
20260902065600 78 203 0.0 0.0 0.00 0.00 0.00 82 1015.2
20260902065529 78 203 0.0 0.0 0.00 0.00 0.00 82 1015.2
20260902065431 78 203 0.0 0.0 0.00 0.00 0.00 82 1015.2
20260902065329 78 203 0.0 0.0 0.00 0.00 0.00 82 1015.2
20260902065245 78 203 0.0 0.0 0.00 0.00 0.00 82 1015.2
20260902065230 78 203 0.0 0.0 0.00 0.00 0.00 82 1015.2
20260902065130 78 203 0.0 0.0 0.00 0.00 0.00 82 1015.2
20260902065029 78 203 0.0 0.0 0.00 0.00 0.00 82 1015.2
20260902064930 78 203 0.0 0.0 0.00 0.00 0.00 82 1015.2
20260902064830 78 203 0.0 0.0 0.00 0.00 0.00 82 1015.2
20260902064732 78 203 0.0 0.0 0.00 0.00 0.00 82 1015.2
20260902064630 78 203 0.0 0.0 0.00 0.00 0.00 82 1015.2
20260902064429 78 203 0.0 0.0 0.00 0.00 0.00 82 1015.2
20260902064334 78 203 0.0 0.0 0.00 0.00 0.00 82 1015.2
20260902064230 78 203 0.0 0.0 0.00 0.00 0.00 82 1015.2
20260902064130 78 203 0.0 0.0 0.00 0.00 0.00 82 1015.2
20260902064030 78 203 0.0 0.0 0.00 0.00 0.00 82 1015.2
20260902063931 78 203 0.0 0.0 0.00 0.00 0.00 82 1015.2
20260902063801 78 203 0.0 0.0 0.00 0.00 0.00 82 1015.2
20260902063729 78 203 0.0 0.0 0.00 0.00 0.00 82 1015.2
20260902063715 78 203 0.0 0.0 0.00 0.00 0.00 81 1015.2
20260902063629 78 203 0.0 0.0 0.00 0.00 0.00 81 1015.2
20260902063438 78 203 0.0 0.0 0.00 0.00 0.00 81 1015.2
20260902063330 78 203 0.0 0.0 0.00 0.00 0.00 81 1015.2
20260902063220 78 203 0.0 0.0 0.00 0.00 0.00 81 1015.1
20260902063130 78 203 0.0 0.0 0.00 0.00 0.00 81 1015.1
20260902045031 81 203 0.0 0.0 0.00 0.00 0.00 74 1015.0
20260902044930 81 203 0.0 0.0 0.00 0.00 0.00 74 1015.0
20260902034732 83 212 0.0 0.0 0.00 0.00 0.00 71 1014.9
20260902034530 82 212 0.0 0.0 0.00 0.00 0.00 71 1015.0
20260902024930 84 176 0.0 2.0 0.00 0.00 0.00 68 1014.9
20260902024830 84 186 0.0 0.0 0.00 0.00 0.00 68 1014.9
20260902024730 84 186 0.0 0.0 0.00 0.00 0.00 68 1014.9
20260902024229 84 177 0.0 2.0 0.00 0.00 0.00 68 1015.0
20260902024130 84 175 0.0 0.0 0.00 0.00 0.00 67 1015.0
20260902024031 84 175 0.0 0.0 0.00 0.00 0.00 67 1015.0
20260902023930 84 181 0.0 2.0 0.00 0.00 0.00 67 1015.0
20260902022930 85 183 1.0 3.0 0.00 0.00 0.00 67 1014.8
20260902022831 85 160 0.0 1.0 0.00 0.00 0.00 67 1014.8
20260902022630 85 160 0.0 0.0 0.00 0.00 0.00 67 1014.9
20260902022530 85 160 0.0 0.0 0.00 0.00 0.00 67 1014.9
20260902022430 85 170 0.0 1.0 0.00 0.00 0.00 67 1014.9
20260902022333 85 178 0.0 0.0 0.00 0.00 0.00 67 1014.8
20260902022230 85 178 0.0 0.0 0.00 0.00 0.00 67 1014.9
20260902022031 85 178 0.0 0.0 0.00 0.00 0.00 67 1015.0
20260902021930 85 178 0.0 0.0 0.00 0.00 0.00 67 1015.0
20260902021829 85 178 0.0 0.0 0.00 0.00 0.00 66 1014.9
20260902021730 85 178 0.0 0.0 0.00 0.00 0.00 66 1014.9
20260902021630 85 178 0.0 0.0 0.00 0.00 0.00 66 1014.9
20260902021530 85 178 0.0 0.0 0.00 0.00 0.00 66 1014.9
20260902021431 85 178 0.0 0.0 0.00 0.00 0.00 66 1014.9
20260902021331 85 178 0.0 0.0 0.00 0.00 0.00 66 1014.9
20260902021231 85 178 0.0 0.0 0.00 0.00 0.00 66 1014.9
20260902021030 85 206 0.0 1.0 0.00 0.00 0.00 66 1014.9
20260902020929 85 206 0.0 0.0 0.00 0.00 0.00 66 1014.9
20260902020830 85 195 1.0 1.0 0.00 0.00 0.00 66 1014.9
20260902020731 85 180 0.0 2.0 0.00 0.00 0.00 66 1014.9
20260902020631 85 181 0.0 0.0 0.00 0.00 0.00 66 1014.8
20260902020534 85 181 0.0 3.0 0.00 0.00 0.00 66 1014.9
20260902020504 86 182 0.0 3.0 0.00 0.00 0.00 66 1014.9
20260902020430 86 182 0.0 3.0 0.00 0.00 0.00 66 1014.9
20260902020333 86 182 0.0 0.0 0.00 0.00 0.00 66 1014.8
20260902020231 86 182 0.0 0.0 0.00 0.00 0.00 66 1014.8
20260902020214 86 182 0.0 0.0 0.00 0.00 0.00 66 1014.7
20260902020129 86 182 0.0 0.0 0.00 0.00 0.00 66 1014.7
20260902020029 86 182 0.0 0.0 0.00 0.00 0.00 66 1014.8
20260902015931 86 182 0.0 0.0 0.00 0.00 0.00 65 1014.7
20260902015830 86 182 0.0 0.0 0.00 0.00 0.00 65 1014.8
20260902015631 86 182 0.0 0.0 0.00 0.00 0.00 65 1014.7
20260902015529 86 165 0.0 1.0 0.00 0.00 0.00 65 1014.7
20260902015429 86 158 0.0 0.0 0.00 0.00 0.00 65 1014.7
20260902015331 86 158 0.0 0.0 0.00 0.00 0.00 65 1014.7
20260902015232 86 158 0.0 0.0 0.00 0.00 0.00 65 1014.7
20260902015211 86 158 0.0 0.0 0.00 0.00 0.00 65 1014.7
20260902015132 86 158 0.0 0.0 0.00 0.00 0.00 65 1014.7
20260902015031 86 158 0.0 0.0 0.00 0.00 0.00 64 1014.7
20260902014932 86 158 0.0 0.0 0.00 0.00 0.00 64 1014.7
20260902014830 86 158 0.0 0.0 0.00 0.00 0.00 64 1014.7
20260902014731 86 154 1.0 1.0 0.00 0.00 0.00 64 1014.7
20260902014632 86 174 1.0 3.0 0.00 0.00 0.00 64 1014.7
20260902014530 86 164 1.0 5.0 0.00 0.00 0.00 64 1014.7
20260902014331 87 234 0.0 3.0 0.00 0.00 0.00 64 1014.7
20260902014236 87 171 0.0 0.0 0.00 0.00 0.00 63 1014.6
20260902014137 87 171 0.0 0.0 0.00 0.00 0.00 63 1014.6
20260902014132 87 171 0.0 0.0 0.00 0.00 0.00 63 1014.6
20260902014031 87 171 0.0 0.0 0.00 0.00 0.00 63 1014.6
20260902013931 87 171 0.0 0.0 0.00 0.00 0.00 63 1014.6
20260902013830 87 171 0.0 3.0 0.00 0.00 0.00 63 1014.6
20260902013731 87 200 0.0 2.0 0.00 0.00 0.00 63 1014.6
20260902013630 87 205 0.0 2.0 0.00 0.00 0.00 63 1014.6
20260902013531 87 216 0.0 0.0 0.00 0.00 0.00 63 1014.5
20260902013431 87 216 1.0 5.0 0.00 0.00 0.00 62 1014.5
20260902013330 87 162 0.0 6.0 0.00 0.00 0.00 62 1014.5
20260902013230 87 154 0.0 0.0 0.00 0.00 0.00 62 1014.5
20260902013130 87 161 1.0 1.0 0.00 0.00 0.00 62 1014.5
20260902012831 87 232 0.0 0.0 0.00 0.00 0.00 62 1014.4
20260902012732 87 232 0.0 0.0 0.00 0.00 0.00 62 1014.4
20260902012630 87 232 0.0 0.0 0.00 0.00 0.00 62 1014.4
20260902012530 87 203 1.0 1.0 0.00 0.00 0.00 62 1014.4
20260902012435 87 172 0.0 2.0 0.00 0.00 0.00 62 1014.4
20260902012332 87 169 1.0 0.0 0.00 0.00 0.00 61 1014.4
20260902012231 87 177 2.0 6.0 0.00 0.00 0.00 61 1014.4
20260902012132 87 214 1.0 2.0 0.00 0.00 0.00 61 1014.4
20260902011931 87 195 3.0 6.0 0.00 0.00 0.00 61 1014.4
20260902011831 87 195 2.0 6.0 0.00 0.00 0.00 61 1014.3
20260902011731 87 192 2.0 5.0 0.00 0.00 0.00 61 1014.3
20260902011431 88 181 1.0 1.0 0.00 0.00 0.00 61 1014.3
20260902011330 87 190 2.0 3.0 0.00 0.00 0.00 61 1014.3
20260902011130 87 196 2.0 5.0 0.00 0.00 0.00 60 1014.3
20260902011031 88 150 1.0 3.0 0.00 0.00 0.00 61 1014.3
20260902010929 88 186 1.0 6.0 0.00 0.00 0.00 60 1014.3
20260901235331 90 195 1.0 1.0 0.00 0.00 0.00 57 1014.4
20260901235230 90 226 0.0 2.0 0.00 0.00 0.00 57 1014.4
20260901234930 90 234 0.0 0.0 0.00 0.00 0.00 57 1014.4
20260901234831 90 234 0.0 0.0 0.00 0.00 0.00 57 1014.4
20260901234731 91 234 0.0 0.0 0.00 0.00 0.00 56 1014.4
20260901234633 91 234 0.0 0.0 0.00 0.00 0.00 56 1014.4
20260901234430 91 234 0.0 0.0 0.00 0.00 0.00 56 1014.4
20260901234330 91 234 0.0 0.0 0.00 0.00 0.00 56 1014.4
20260901234231 91 208 0.0 3.0 0.00 0.00 0.00 56 1014.4
20260901234131 91 158 0.0 0.0 0.00 0.00 0.00 56 1014.4
20260901234033 91 158 0.0 0.0 0.00 0.00 0.00 56 1014.4
20260901233931 91 158 0.0 1.0 0.00 0.00 0.00 56 1014.4
20260901233831 91 158 0.0 1.0 0.00 0.00 0.00 56 1014.4
20260901233731 91 158 0.0 0.0 0.00 0.00 0.00 56 1014.4
20260901233630 91 171 0.0 5.0 0.00 0.00 0.00 55 1014.4
20260901233531 91 182 0.0 0.0 0.00 0.00 0.00 55 1014.3
20260901233431 91 182 0.0 0.0 0.00 0.00 0.00 55 1014.4
20260901233331 91 182 0.0 0.0 0.00 0.00 0.00 55 1014.4
20260901233231 91 197 0.0 2.0 0.00 0.00 0.00 54 1014.3
20260901233131 92 216 0.0 0.0 0.00 0.00 0.00 54 1014.3
20260901232932 92 208 0.0 3.0 0.00 0.00 0.00 54 1014.4
20260901232830 92 205 0.0 0.0 0.00 0.00 0.00 53 1014.4
20260901232730 92 205 0.0 0.0 0.00 0.00 0.00 53 1014.4
20260901232630 92 205 0.0 0.0 0.00 0.00 0.00 52 1014.3
20260901232531 92 205 0.0 0.0 0.00 0.00 0.00 52 1014.4
20260901232430 92 205 1.0 0.0 0.00 0.00 0.00 52 1014.4
20260901232330 92 205 1.0 3.0 0.00 0.00 0.00 52 1014.4
20260901232230 92 171 3.0 8.0 0.00 0.00 0.00 51 1014.4
20260901232031 92 169 0.0 0.0 0.00 0.00 0.00 51 1014.3
20260901231931 92 169 0.0 0.0 0.00 0.00 0.00 51 1014.4
20260901231829 92 178 1.0 2.0 0.00 0.00 0.00 51 1014.4
20260901231730 92 196 2.0 3.0 0.00 0.00 0.00 51 1014.3
20260901231630 92 198 2.0 7.0 0.00 0.00 0.00 50 1014.4
20260901231530 92 169 1.0 3.0 0.00 0.00 0.00 50 1014.4
20260901231430 92 185 2.0 5.0 0.00 0.00 0.00 50 1014.3
20260901231330 92 190 6.0 8.0 0.00 0.00 0.00 50 1014.4
20260901231230 92 195 3.0 10.0 0.00 0.00 0.00 50 1014.3
20260901231130 92 188 3.0 8.0 0.00 0.00 0.00 50 1014.3
20260901230929 92 202 0.0 0.0 0.00 0.00 0.00 51 1014.3
20260901230830 92 204 1.0 1.0 0.00 0.00 0.00 51 1014.3
20260901230730 92 165 0.0 2.0 0.00 0.00 0.00 51 1014.3
20260901230631 93 166 0.0 2.0 0.00 0.00 0.00 51 1014.2
20260901230530 93 164 0.0 0.0 0.00 0.00 0.00 51 1014.2
20260901230430 93 164 0.0 0.0 0.00 0.00 0.00 50 1014.2
20260901230330 93 164 0.0 0.0 0.00 0.00 0.00 51 1014.2
20260901230230 93 164 0.0 0.0 0.00 0.00 0.00 51 1014.2
20260901230130 93 164 0.0 0.0 0.00 0.00 0.00 50 1014.2
20260901230030 92 174 0.0 2.0 0.00 0.00 0.00 50 1014.2
20260901225931 93 210 0.0 0.0 0.00 0.00 0.00 50 1014.2
20260901225830 92 216 2.0 5.0 0.00 0.00 0.00 50 1014.2
20260901225731 93 226 2.0 5.0 0.00 0.00 0.00 50 1014.2
20260901225631 93 217 2.0 5.0 0.00 0.00 0.00 50 1014.2
20260901225531 93 225 3.0 6.0 0.00 0.00 0.00 50 1014.2
20260901225431 93 238 5.0 9.0 0.00 0.00 0.00 50 1014.2
20260901225331 93 227 5.0 8.0 0.00 0.00 0.00 50 1014.2
20260901225230 93 242 3.0 10.0 0.00 0.00 0.00 50 1014.2
20260901225030 93 197 0.0 8.0 0.00 0.00 0.00 51 1014.2
20260901224930 93 174 0.0 0.0 0.00 0.00 0.00 50 1014.2
20260901224530 93 230 3.0 7.0 0.00 0.00 0.00 49 1014.2
20260901224430 93 222 0.0 5.0 0.00 0.00 0.00 50 1014.2
20260901224330 93 224 1.0 2.0 0.00 0.00 0.00 50 1014.2
20260901224230 93 205 1.0 3.0 0.00 0.00 0.00 50 1014.1
20260901224130 93 220 1.0 5.0 0.00 0.00 0.00 50 1014.1
20260901224030 93 226 0.0 3.0 0.00 0.00 0.00 50 1014.2
20260901223929 93 219 0.0 0.0 0.00 0.00 0.00 50 1014.2
20260901223829 93 223 2.0 5.0 0.00 0.00 0.00 50 1014.1
20260901223729 93 211 3.0 5.0 0.00 0.00 0.00 50 1014.2
20260901223629 93 235 2.0 7.0 0.00 0.00 0.00 50 1014.1
20260901223230 93 254 0.0 0.0 0.00 0.00 0.00 49 1014.1
20260901223130 93 254 0.0 0.0 0.00 0.00 0.00 49 1014.1
20260901223032 93 263 2.0 2.0 0.00 0.00 0.00 49 1014.1
20260901222932 93 209 1.0 5.0 0.00 0.00 0.00 49 1014.1
20260901222832 93 232 1.0 3.0 0.00 0.00 0.00 49 1014.1
20260901222730 93 242 0.0 5.0 0.00 0.00 0.00 50 1014.1
20260901222631 93 248 0.0 0.0 0.00 0.00 0.00 49 1014.1
20260901222530 93 237 1.0 5.0 0.00 0.00 0.00 49 1014.1
20260901221431 93 166 1.0 3.0 0.00 0.00 0.00 48 1014.1
20260901221331 93 220 2.0 5.0 0.00 0.00 0.00 48 1014.0
20260901221130 93 185 5.0 9.0 0.00 0.00 0.00 48 1014.0
20260901220930 93 178 3.0 6.0 0.00 0.00 0.00 48 1014.0
20260901220830 93 174 5.0 10.0 0.00 0.00 0.00 48 1014.1
20260901220630 93 240 2.0 6.0 0.00 0.00 0.00 48 1014.1
20260901220530 93 221 2.0 5.0 0.00 0.00 0.00 48 1014.0
20260901220432 93 226 3.0 6.0 0.00 0.00 0.00 48 1014.1
20260901220330 93 241 2.0 7.0 0.00 0.00 0.00 48 1014.0
20260901220231 93 238 2.0 5.0 0.00 0.00 0.00 48 1014.0
20260901220131 93 233 5.0 8.0 0.00 0.00 0.00 48 1014.0
20260901220030 93 226 6.0 9.0 0.00 0.00 0.00 48 1014.0
20260901215931 93 246 3.0 9.0 0.00 0.00 0.00 49 1014.0
20260901215830 94 193 1.0 5.0 0.00 0.00 0.00 50 1014.0
20260901215730 93 221 3.0 5.0 0.00 0.00 0.00 49 1013.9
20260901215630 93 239 3.0 8.0 0.00 0.00 0.00 49 1014.0
20260901215530 93 199 1.0 6.0 0.00 0.00 0.00 49 1014.0
20260901213230 94 171 1.0 3.0 0.00 0.00 0.00 48 1014.0
20260901213130 94 189 1.0 2.0 0.00 0.00 0.00 48 1014.0
20260901212931 94 231 2.0 8.0 0.00 0.00 0.00 48 1014.1
20260901212831 94 236 5.0 7.0 0.00 0.00 0.00 47 1014.0
20260901212731 94 232 3.0 9.0 0.00 0.00 0.00 47 1014.0
20260901212631 94 192 2.0 5.0 0.00 0.00 0.00 47 1014.0
20260901212531 94 215 3.0 5.0 0.00 0.00 0.00 47 1014.0
20260901212431 94 228 2.0 6.0 0.00 0.00 0.00 47 1014.1
20260901212331 94 225 1.0 6.0 0.00 0.00 0.00 48 1014.0
20260901212231 94 199 1.0 1.0 0.00 0.00 0.00 48 1014.0
20260901212132 94 210 3.0 5.0 0.00 0.00 0.00 47 1014.1
20260901211730 93 247 3.0 6.0 0.00 0.00 0.00 48 1014.1
20260901211630 93 221 6.0 9.0 0.00 0.00 0.00 48 1014.1
20260901211530 94 230 1.0 8.0 0.00 0.00 0.00 49 1014.1
20260901211430 93 197 3.0 2.0 0.00 0.00 0.00 48 1014.1
20260901211331 93 206 6.0 8.0 0.00 0.00 0.00 47 1014.1
20260901211232 94 195 5.0 8.0 0.00 0.00 0.00 47 1014.1
20260901211131 94 200 3.0 6.0 0.00 0.00 0.00 47 1014.0
20260901210830 94 182 0.0 3.0 0.00 0.00 0.00 49 1014.1
20260901210731 94 178 0.0 0.0 0.00 0.00 0.00 50 1014.1
20260901210530 94 178 1.0 0.0 0.00 0.00 0.00 49 1014.1
20260901210430 93 187 1.0 5.0 0.00 0.00 0.00 48 1014.1
20260901210332 93 265 3.0 6.0 0.00 0.00 0.00 48 1014.1
20260901210230 93 245 5.0 8.0 0.00 0.00 0.00 48 1014.2
20260901210130 93 239 6.0 8.0 0.00 0.00 0.00 48 1014.2
20260901210030 93 236 7.0 9.0 0.00 0.00 0.00 47 1014.2
20260901205931 93 222 6.0 12.0 0.00 0.00 0.00 48 1014.1
20260901205830 93 216 5.0 10.0 0.00 0.00 0.00 48 1014.2
20260901205730 94 224 6.0 9.0 0.00 0.00 0.00 48 1014.2
20260901205630 94 226 2.0 9.0 0.00 0.00 0.00 48 1014.2
20260901205531 94 133 0.0 1.0 0.00 0.00 0.00 47 1014.2
20260901205430 94 170 0.0 3.0 0.00 0.00 0.00 48 1014.2
20260901205329 94 200 1.0 0.0 0.00 0.00 0.00 48 1014.2
20260901205231 94 206 2.0 5.0 0.00 0.00 0.00 48 1014.2
20260901205132 94 201 2.0 5.0 0.00 0.00 0.00 48 1014.2
20260901205029 94 222 1.0 5.0 0.00 0.00 0.00 49 1014.2
20260901204929 93 215 3.0 6.0 0.00 0.00 0.00 47 1014.2
20260901204830 94 228 2.0 8.0 0.00 0.00 0.00 47 1014.2
20260901204730 94 210 2.0 5.0 0.00 0.00 0.00 47 1014.2
20260901204629 94 222 2.0 5.0 0.00 0.00 0.00 48 1014.2
20260901204531 94 209 5.0 7.0 0.00 0.00 0.00 48 1014.2
20260901204430 94 205 2.0 7.0 0.00 0.00 0.00 48 1014.2
20260901204330 94 186 3.0 8.0 0.00 0.00 0.00 47 1014.2
20260901204230 94 232 5.0 8.0 0.00 0.00 0.00 47 1014.2
20260901204130 94 227 5.0 8.0 0.00 0.00 0.00 47 1014.2
20260901204030 94 235 5.0 8.0 0.00 0.00 0.00 47 1014.2
20260901203931 95 226 1.0 6.0 0.00 0.00 0.00 47 1014.1
20260901203831 95 178 0.0 2.0 0.00 0.00 0.00 48 1014.1
20260901203730 95 226 1.0 3.0 0.00 0.00 0.00 48 1014.2
20260901203530 94 215 2.0 2.0 0.00 0.00 0.00 47 1014.2